User: anonymous   Login
Location: Caltech
(34.1382°N, 118.1253°W)
Time: 09:24:04
(UTC-08:00)
Language:

PAYLOAD A - Orbit

View from above orbital plane
View from above orbital plane
View from above satellite
View from above satellite

Ground track
Ground track

The orbit data is extracted from the following two-line orbital elements,

1 27840U 03031A   14329.55634608  .00000112  00000-0  47504-4 0  7057
2 27840 098.2232 351.6123 0099281 056.8871 059.1682 14.38746314598918
Epoch (UTC): 25 November 2014 13:21:08
Eccentricity: 0.0099281
inclination: 98.2232°
perigee height: 692 km
apogee height: 833 km
right ascension of ascending node: 351.6123°
argument of perigee: 56.8871°
revolutions per day: 14.38746314
mean anomaly at epoch: 59.1682°
orbit number at epoch: 59891

The dashed part of the orbit path shows where the satellite is in the earth's shadow,  

DLR